TimeCST,TemperatureF,Dew PointF,Humidity,Sea Level PressureIn,VisibilityMPH,Wind Direction,Wind SpeedMPH,Gust SpeedMPH,PrecipitationIn,Events,Conditions,WindDirDegrees,DateUTC
12:13 AM,12.2,6.8,79,30.21,10.0,South,4.6,-,N/A,,Clear,170,2012-11-27 06:13:00
12:33 AM,10.4,6.8,85,30.20,10.0,South,5.8,-,N/A,,Clear,170,2012-11-27 06:33:00
12:53 AM,12.2,6.8,79,30.19,10.0,South,4.6,-,N/A,,Clear,170,2012-11-27 06:53:00
1:14 AM,12.2,6.8,79,30.18,10.0,South,4.6,-,N/A,,Clear,180,2012-11-27 07:14:00
1:33 AM,12.2,8.6,85,30.18,10.0,South,5.8,-,N/A,,Scattered Clouds,180,2012-11-27 07:33:00
1:53 AM,12.2,8.6,85,30.17,10.0,South,5.8,-,N/A,,Clear,170,2012-11-27 07:53:00
2:14 AM,12.2,8.6,85,30.17,10.0,South,3.5,-,N/A,,Clear,170,2012-11-27 08:14:00
2:33 AM,12.2,8.6,85,30.17,10.0,South,4.6,-,N/A,,Clear,170,2012-11-27 08:33:00
2:53 AM,12.2,8.6,85,30.16,10.0,South,4.6,-,N/A,,Clear,180,2012-11-27 08:53:00
3:14 AM,14.0,8.6,79,30.15,10.0,Calm,Calm,-,N/A,,Scattered Clouds,0,2012-11-27 09:14:00
3:54 AM,12.2,8.6,85,30.14,10.0,South,4.6,-,N/A,,Clear,180,2012-11-27 09:54:00
4:13 AM,14.0,10.4,86,30.13,10.0,South,5.8,-,N/A,,Clear,180,2012-11-27 10:13:00
4:33 AM,14.0,10.4,86,30.12,10.0,South,6.9,-,N/A,,Clear,180,2012-11-27 10:33:00
4:54 AM,15.8,10.4,79,30.11,10.0,South,8.1,-,N/A,,Scattered Clouds,190,2012-11-27 10:54:00
5:13 AM,15.8,10.4,79,30.10,10.0,South,8.1,-,N/A,,Mostly Cloudy,190,2012-11-27 11:13:00
5:33 AM,15.8,10.4,79,30.09,10.0,SSW,8.1,-,N/A,,Overcast,200,2012-11-27 11:33:00
5:54 AM,17.6,12.2,79,30.09,10.0,South,6.9,-,N/A,,Overcast,190,2012-11-27 11:54:00
6:13 AM,17.6,12.2,79,30.08,10.0,South,5.8,-,N/A,,Overcast,190,2012-11-27 12:13:00
6:33 AM,17.6,12.2,79,30.09,10.0,Calm,Calm,-,N/A,,Overcast,0,2012-11-27 12:33:00
6:54 AM,15.8,12.2,86,30.09,10.0,SSW,3.5,-,N/A,,Scattered Clouds,210,2012-11-27 12:54:00
7:13 AM,17.6,12.2,79,30.09,10.0,Calm,Calm,-,N/A,,Mostly Cloudy,0,2012-11-27 13:13:00
7:33 AM,17.6,12.2,79,30.09,10.0,SSW,3.5,-,N/A,,Overcast,200,2012-11-27 13:33:00
7:54 AM,17.6,12.2,79,30.09,10.0,South,4.6,-,N/A,,Overcast,190,2012-11-27 13:54:00
8:13 AM,17.6,12.2,79,30.08,10.0,South,5.8,-,N/A,,Overcast,170,2012-11-27 14:13:00
8:33 AM,17.6,14.0,86,30.08,10.0,South,4.6,-,N/A,,Overcast,180,2012-11-27 14:33:00
8:54 AM,19.4,14.0,80,30.08,10.0,South,5.8,-,N/A,,Overcast,170,2012-11-27 14:54:00
9:13 AM,19.4,14.0,80,30.08,10.0,South,5.8,-,N/A,,Overcast,180,2012-11-27 15:13:00
9:33 AM,19.4,15.8,86,30.07,10.0,South,3.5,-,N/A,,Overcast,190,2012-11-27 15:33:00
9:54 AM,19.4,15.8,86,30.07,10.0,South,3.5,-,N/A,,Scattered Clouds,190,2012-11-27 15:54:00
10:13 AM,21.2,15.8,80,30.07,10.0,SW,4.6,-,N/A,,Clear,220,2012-11-27 16:13:00
10:33 AM,24.8,17.6,74,30.07,10.0,WSW,4.6,-,N/A,,Clear,250,2012-11-27 16:33:00
10:54 AM,26.6,19.4,74,30.07,10.0,West,9.2,-,N/A,,Clear,270,2012-11-27 16:54:00
11:13 AM,26.6,19.4,74,30.07,10.0,West,8.1,-,N/A,,Clear,280,2012-11-27 17:13:00
11:33 AM,26.6,19.4,74,30.06,10.0,WNW,6.9,-,N/A,,Clear,290,2012-11-27 17:33:00
11:54 AM,26.6,19.4,74,30.06,10.0,WNW,8.1,-,N/A,,Clear,300,2012-11-27 17:54:00
12:13 PM,28.4,19.4,69,30.06,10.0,West,8.1,-,N/A,,Clear,260,2012-11-27 18:13:00
12:33 PM,28.4,21.2,74,30.06,10.0,WNW,8.1,-,N/A,,Scattered Clouds,290,2012-11-27 18:33:00
12:54 PM,28.4,21.2,74,30.06,10.0,West,6.9,-,N/A,,Scattered Clouds,260,2012-11-27 18:54:00
1:13 PM,28.4,21.2,74,30.06,10.0,WNW,8.1,-,N/A,,Clear,300,2012-11-27 19:13:00
1:33 PM,28.4,21.2,74,30.06,10.0,WNW,6.9,-,N/A,,Mostly Cloudy,290,2012-11-27 19:33:00
1:53 PM,28.4,21.2,74,30.06,10.0,WNW,8.1,-,N/A,,Overcast,290,2012-11-27 19:53:00
2:13 PM,28.4,21.2,74,30.06,10.0,WNW,8.1,-,N/A,,Overcast,290,2012-11-27 20:13:00
2:34 PM,28.4,21.2,74,30.06,10.0,WNW,6.9,-,N/A,,Overcast,300,2012-11-27 20:34:00
2:53 PM,28.4,21.2,74,30.06,10.0,West,6.9,-,N/A,,Overcast,280,2012-11-27 20:53:00
3:13 PM,28.4,21.2,74,30.07,10.0,West,8.1,-,N/A,,Overcast,280,2012-11-27 21:13:00
3:34 PM,28.4,21.2,74,30.08,10.0,WNW,8.1,-,N/A,,Overcast,300,2012-11-27 21:34:00
3:53 PM,28.4,21.2,74,30.09,10.0,WNW,8.1,-,N/A,,Overcast,290,2012-11-27 21:53:00
4:13 PM,28.4,21.2,74,30.10,10.0,NW,12.7,-,N/A,,Overcast,310,2012-11-27 22:13:00
4:34 PM,26.6,21.2,80,30.10,10.0,WNW,10.4,-,N/A,,Overcast,290,2012-11-27 22:34:00
4:53 PM,26.6,21.2,80,30.11,10.0,NW,11.5,-,N/A,,Overcast,310,2012-11-27 22:53:00
5:13 PM,26.6,21.2,80,30.11,10.0,NW,12.7,-,N/A,,Overcast,310,2012-11-27 23:13:00
5:53 PM,24.8,19.4,80,30.13,10.0,NW,11.5,-,N/A,,Overcast,320,2012-11-27 23:53:00
6:14 PM,24.8,19.4,80,30.13,10.0,NW,10.4,-,N/A,,Overcast,320,2012-11-28 00:14:00
6:33 PM,24.8,19.4,80,30.14,10.0,NNW,11.5,-,N/A,,Overcast,330,2012-11-28 00:33:00
6:53 PM,24.8,19.4,80,30.15,10.0,WNW,9.2,-,N/A,,Overcast,300,2012-11-28 00:53:00
7:14 PM,24.8,19.4,80,30.15,10.0,NW,12.7,-,N/A,,Overcast,320,2012-11-28 01:14:00
7:33 PM,23.0,19.4,86,30.16,10.0,NW,13.8,-,N/A,,Overcast,310,2012-11-28 01:33:00
7:53 PM,23.0,19.4,86,30.17,10.0,WNW,12.7,-,N/A,,Overcast,300,2012-11-28 01:53:00
8:14 PM,23.0,19.4,86,30.18,10.0,WNW,12.7,18.4,N/A,,Overcast,300,2012-11-28 02:14:00
8:33 PM,21.2,19.4,93,30.18,10.0,WNW,10.4,-,N/A,,Overcast,300,2012-11-28 02:33:00
8:53 PM,21.2,19.4,93,30.19,10.0,WNW,12.7,-,N/A,,Overcast,300,2012-11-28 02:53:00
9:14 PM,21.2,17.6,86,30.19,10.0,NW,12.7,-,N/A,,Overcast,310,2012-11-28 03:14:00
9:33 PM,21.2,19.4,93,30.19,10.0,NW,12.7,-,N/A,,Overcast,310,2012-11-28 03:33:00
9:53 PM,21.2,17.6,86,30.19,10.0,WNW,10.4,-,N/A,,Overcast,300,2012-11-28 03:53:00
10:14 PM,21.2,17.6,86,30.20,10.0,NNW,9.2,-,N/A,,Overcast,330,2012-11-28 04:14:00
10:33 PM,21.2,17.6,86,30.21,10.0,NW,10.4,-,N/A,,Overcast,310,2012-11-28 04:33:00
10:53 PM,21.2,17.6,86,30.21,10.0,NW,11.5,-,N/A,,Overcast,320,2012-11-28 04:53:00
11:14 PM,21.2,17.6,86,30.22,10.0,NW,13.8,18.4,N/A,,Overcast,310,2012-11-28 05:14:00
11:53 PM,19.4,15.8,86,30.23,10.0,NW,11.5,-,N/A,,Overcast,320,2012-11-28 05:53:00